Regional Weather Roundup
Issued by NWS

Home | Current Version | Previous Version | Graphics & Text | Print | Product List | Glossary On
Versions: 1 2 3 4 5 6 7 8 9 10 11 12 13 14 15 16 17 18 19 20 21 22 23 24 25 26 27 28 29 30 31 32 33 34 35 36 37 38 39 40 41 42 43 44 45 46 47 48 49 50
000
ASUS43 KMKX 300100
RWRWI

WISCONSIN REGIONAL WEATHER ROUNDUP
NATIONAL WEATHER SERVICE MILWAUKEE/SULLIVAN WI
800 PM CDT FRI JUL 29 2016

NOTE: "FAIR" INDICATES FEW OR NO CLOUDS BELOW 12,000 FEET WITH NO
SIGNIFICANT WEATHER AND/OR OBSTRUCTIONS TO VISIBILITY.

WIZ001-002-006>008-014>016-023>028-300200-
NORTHWEST WISCONSIN

CITY           SKY/WX    TMP DP  RH WIND       PRES   REMARKS
SUPERIOR ARPT  CLEAR     66  57  71 NE5       30.06R
ASHLAND        CLEAR     65  56  72 NE7       30.07S
HAYWARD        CLEAR     69  55  60 NE10      30.06S
SIREN          CLEAR     73  54  49 NE3       30.04S
CUMBERLAND     CLEAR     72  54  53 N5        30.04S
RICE LAKE      CLEAR     72  58  61 N3        30.04S
CHETEK         CLEAR     74  57  54 MISG      30.03S
LADYSMITH      CLEAR     74  59  59 N3        30.05S
EAU CLAIRE     NOT AVBL
MENOMONIE      CLEAR     78  53  41 N5        30.02S
NEW RICHMOND   CLEAR     73  53  49 E3        30.03S
OSCEOLA        CLEAR     73  56  55 N5        30.05S
$$

WIZ003>005-009-010-017-018-300200-
NORTH CENTRAL WISCONSIN

CITY           SKY/WX    TMP DP  RH WIND       PRES   REMARKS
MANITOWISH WTR CLEAR     72  56  57 NE6       30.06R
ARBOR VITAE    CLEAR     77  56  48 CALM      30.06R
WOODRUFF       CLEAR     77  56  48 CALM      30.06R
RHINELANDER    PTCLDY    69  59  70 SE3       30.07R
EAGLE RIVER    CLEAR     70  55  59 SE3       30.06R
LAND O LAKES   PTCLDY    74  55  50 SE5       30.07R
PHILLIPS       CLEAR     73  59  62 CALM      30.04S
TOMAHAWK       CLEAR     69  59  71 CALM      30.06R
MEDFORD        CLEAR     70  61  72 E3        30.05S
MERRILL        CLOUDY    72  61  66 SE6       30.06R
$$

WIZ029-030-035-036-043>047-300200-
CENTRAL WISCONSIN

CITY           SKY/WX    TMP DP  RH WIND       PRES   REMARKS
WAUSAU         MOCLDY    69  61  75 E6        30.03S
MOSINEE        CLEAR     68  61  77 E5        30.05S
MARSHFIELD     CLOUDY    71  62  73 SE6       30.03S
STEVENS POINT  CLOUDY    68  63  83 E3        30.04S
WAUPACA        CLOUDY    73  63  70 NE5       30.03S
WAUTOMA        CLOUDY    70  65  84 NE5       30.02S
WISC RAPIDS    CLOUDY    71  62  73 E5        30.03F
CAMP DOUGLAS   NOT AVBL
$$

WIZ011>013-019>022-031-037>040-048>050-300200-
NORTHEAST WISCONSIN

CITY           SKY/WX    TMP DP  RH WIND       PRES   REMARKS
ANTIGO         MOCLDY    67  58  73 CALM      30.07S
SHAWANO        CLOUDY    72  57  60 E6        30.04S
OCONTO         CLOUDY    71  58  64 NE3       30.03S
STURGEON BAY   CLEAR     69  56  62 NE5       30.04S
GREEN BAY      CLOUDY    70  57  63 NE6       30.03R
MANITOWOC      NOT AVBL
APPLETON       MOCLDY    72  54  53 E9        30.01S
CLINTONVILLE   CLOUDY    70  55  60 E3        30.03S
OSHKOSH        CLOUDY    72  60  66 E10       30.02R
$$

WIZ032>034-041-042-053>061-300200-
SOUTHWEST WISCONSIN

CITY           SKY/WX    TMP DP  RH WIND       PRES   REMARKS
LA CROSSE      CLOUDY    72  67  84 E5        30.00S
SPARTA         CLOUDY    70  64  82 E3        30.02S
VIROQUA        CLOUDY    69  64  86 E6        30.02S
BOSCOBEL       CLOUDY    70  67  90 CALM      30.00R
PRAIRIE DU CHI CLOUDY    70  65  82 NE6       29.99R
PLATTEVILLE    CLOUDY    70  67  90 NE6       30.00R
$$

WIZ056-057-062-063-064-067-068-300200-
SOUTH CENTRAL WISCONSIN

CITY           SKY/WX    TMP DP  RH WIND       PRES   REMARKS
REEDSBURG      CLOUDY    69  67  91 NE5       30.00S
BARABOO/DELLS  CLOUDY    68  65  90 N3        30.01R
LONE ROCK      CLOUDY    71  66  84 NE5       30.00R
MINERAL POINT  CLOUDY    70  66  88 NE6       30.00R
MADISON        MOCLDY    71  64  78 NE7       29.99R
MIDDLETON      PTCLDY    72  64  77 E5        30.00R
WATERTOWN      CLOUDY    70  63  80 NE7       30.00R
MONROE         CLOUDY    70  66  88 NE7       29.99R
JANESVILLE     CLOUDY    73  68  83 CALM      29.98R
$$

WIZ051-052-058>065-066-070>072-300200-
SOUTHEAST WISCONSIN

CITY           SKY/WX    TMP DP  RH WIND       PRES   REMARKS
MILWAUKEE      CLOUDY    70  65  84 NE12      29.99R
WAUKESHA       MOCLDY    70  61  73 NE9       30.01R
MILWAUKEE/TIMM NOT AVBL
RACINE         CLOUDY    69  65  86 N9        29.99S
BURLINGTON     CLOUDY    70  64  79 NE7       29.98R
KENOSHA        CLOUDY    70  66  87 NE9       29.97S
FOND DU LAC    CLOUDY    72  60  66 NE12      30.02R
SHEBOYGAN      CLOUDY    69  60  73 NE14      30.01S
WEST BEND      CLOUDY    68  59  73 NE8       30.01R
JUNEAU         PTCLDY    69  62  77 NE5       30.02R
$$

LSZ147-162-300200-
LAKE SUPERIOR

STATION/POSITION TIME  TEMP    WIND        PRES    WAVE
                       AIR SEA DIR/SP/G            HT/PER
                 (UTC) (F)     (DEG/KT/KT) (MB)    (FT/S)
W MID LAKE BUOY  2350   64 63  100/  6/  6 1017.7F   0
DEVILS ISLAND    0000   66      90/  5/  6 1018.0F
PORT WING        0040   69      80/  3/  4 1017.9S
SAXON HARBOR     0000   69      40/  6/  9 1017.9S
$$

LMZ867-665-643>646-300200-
LAKE MICHIGAN

STATION/POSITION TIME  TEMP    WIND        PRES    WAVE
                       AIR SEA DIR/SP/G            HT/PER
                 (UTC) (F)     (DEG/KT/KT) (MB)    (FT/S)
CHAMBERS ISLAND  0000   73      60/  8/ 10 1016.9S
S GREEN BAY BUOY 0030   71 70   60/  8/ 12 1016.4S
N MID LAKE BUOY  2350   71 70   80/ 10/ 12 1016.5R   1/ 3
NORTHPORT PIER   0000   72      80/  8/ 10 1016.9S
SISTER BAY       0021   77      80/  3/  8   N/A
ALGOMA LAKESHORE 0013           20/ 11/ 16   N/A
KEWAUNEE LAKESHO 0000   69      30/  5/  9   N/A
SHEBOYGAN LAKESH 0000   65     350/ 12/ 13 1016.1S
PORT WASHINGTON  0000   71      30/  8/ 12 1016.3R
ATWATER BUOY     0000   63 61  350/  6/  8 1017.0R
MILWAUKEE LAKESH 0010   68      10/ 12/ 13   N/A
S MID LAKE BUOY  2350   74 74   70/ 14/ 17 1013.7R   3/ 5
KENOSHA   LAKESH 0000   68      10/ 13/ 14 1014.6S
$$

TC  - TEMPERATURE IN CELSIUS
VSB - VISIBILITY IN STATUTE MILES
WCI - WIND CHILL INDEX
HX  - HEAT INDEX





USA.gov is the U.S. government's official web portal to all federal, state and local government web resources and services.